Home   Weather   Willich   Past weeks

Flag for Germany Past Weather in Willich, North Rhine-Westphalia, Germany — Yesterday and Last 2 Weeks

Now
54 °F

Passing clouds.


Feels Like: 53 °F
Forecast: 38 / 64 °F
Wind: 5 mph from North

Location: Monchengladbach Airport

Current Time: Apr 29, 2017 at 5:48:37 pm

Latest Report: Apr 29, 2017 at 4:50 pm


Visibility: N/A

Pressure: 30.04 "Hg

Humidity: 41%

Dew Point: 30 °F

Location of WillichLocation

Past Weather in Willich — Graph

°F

Willich Temperature Yesterday

Maximum temperature yesterday: 52 °F (at 2:50 pm)
Minimum temperature yesterday: 39 °F (at 8:20 am)
Average temperature yesterday: 48 °F

High & Low Weather Summary for the Past Weeks

 TemperatureHumidityPressure
High59 °F (Apr 21, 2:50 pm)100% (Apr 17, 7:50 am)30.63 "Hg (Apr 17, 7:50 am)
Low30 °F (Apr 20, 7:50 am)30% (Apr 20, 6:20 pm)29.74 "Hg (Apr 25, 8:20 am)
Average49 °F57%30.15 "Hg
* Reported Apr 14 4:20 pm — Apr 29 4:20 pm, Willich, Weather by CustomWeather, © 2017

Note: Actual official high and low records may vary slightly from our data, if they occured in-between our weather recording intervals... More about our weather records

Advertising

Willich Weather History for the Previous 24 Hours

Scroll right to see more
 ConditionsComfort  
Time TempWeatherWind HumidityBarometerVisibility
4:20 pm
Sat, Apr 29
55 °FClear.5 mph41%30.07 "Hg10 mi
3:50 pm54 °FPassing clouds.7 mph44%30.07 "HgN/A
3:20 pm54 °FClear.3 mph41%30.07 "Hg10 mi
2:20 pm52 °FClear.7 mph47%30.07 "Hg10 mi
1:50 pm54 °FClear.3 mph44%30.07 "Hg10 mi
1:20 pm52 °FClear.2 mph47%30.09 "Hg10 mi
12:50 pm50 °FClear.3 mph50%30.09 "Hg10 mi
12:20 pm50 °FClear.3 mph47%30.09 "Hg10 mi
11:50 am50 °FScattered clouds.3 mph47%30.09 "HgN/A
11:20 am50 °FScattered clouds.5 mph50%30.09 "HgN/A
10:50 am48 °FScattered clouds.2 mph54%30.09 "HgN/A
10:20 am46 °FScattered clouds.3 mph62%30.09 "HgN/A
9:20 am48 °FSunny.3 mph66%30.09 "Hg10 mi
8:50 am45 °FSunny.2 mph76%30.07 "Hg10 mi
8:20 am43 °FSunny.2 mph81%30.07 "Hg10 mi
7:50 am41 °FSunny.2 mph93%30.07 "Hg10 mi
8:20 pm
Fri, Apr 28
50 °FPassing clouds.5 mph67%29.98 "HgN/A
7:50 pm50 °FPartly cloudy.5 mph71%29.98 "HgN/A
7:20 pm52 °FPartly cloudy.8 mph58%29.98 "HgN/A
6:50 pm52 °FPassing clouds.7 mph54%29.95 "HgN/A
6:20 pm52 °FPassing clouds.8 mph62%29.95 "HgN/A
5:50 pm52 °FPassing clouds.7 mph62%29.95 "HgN/A
5:20 pm50 °FPassing clouds.8 mph67%29.95 "HgN/A
Weather by CustomWeather, © 2017

See weather overviewHow to use our weather pages